EW3827 Weather Reports


Display with metric or nautical units.
time (UTC)temp
F
wind
direction
speed
MPH
gust
MPH
rain 1hr
in
rain 24hr
in
rain mn
in
humidity
%
barometer
mb
20260510022510 52 0 0.0 0.0 0.00 0.02 0.02 90 1010.7
20260510022011 52 0 0.0 0.0 0.00 0.02 0.02 90 1010.7
20260510021511 52 0 0.0 0.0 0.00 0.02 0.02 89 1010.7
20260510021011 52 0 0.0 0.0 0.00 0.02 0.02 89 1010.6
20260510020511 52 95 0.0 1.0 0.00 0.02 0.02 89 1010.6
20260510020010 52 95 0.0 1.0 0.00 0.02 0.02 89 1010.5
20260510015511 52 95 0.0 1.0 0.00 0.02 0.02 89 1010.6
20260510015011 52 0 0.0 0.0 0.00 0.02 0.02 88 1010.6
20260510014512 53 0 0.0 0.0 0.00 0.02 0.02 88 1010.6
20260510014011 53 0 0.0 0.0 0.00 0.02 0.02 88 1010.6
20260510013511 53 0 0.0 0.0 0.00 0.02 0.02 88 1010.6
20260510013011 53 0 0.0 0.0 0.00 0.02 0.02 88 1010.6
20260510012511 53 0 0.0 0.0 0.00 0.02 0.02 88 1010.6
20260510012011 54 95 0.0 1.0 0.00 0.02 0.02 88 1010.6
20260510011511 54 95 0.0 1.0 0.00 0.02 0.02 88 1010.6
20260510011011 54 0 0.0 0.0 0.00 0.02 0.02 87 1010.5
20260510010511 54 0 0.0 0.0 0.00 0.02 0.02 87 1010.4
20260510010011 54 0 0.0 0.0 0.00 0.02 0.02 86 1010.3
20260510005510 54 95 0.0 1.0 0.00 0.02 0.02 87 1010.3
20260510005011 55 95 0.0 1.0 0.00 0.02 0.02 86 1010.3
20260510004511 55 95 0.0 1.0 0.00 0.02 0.02 86 1010.4
20260510003511 55 0 0.0 0.0 0.00 0.02 0.02 85 1010.4
20260510003011 56 0 0.0 0.0 0.00 0.02 0.02 85 1010.3
20260510002511 56 0 0.0 0.0 0.00 0.02 0.02 84 1010.3
20260510002010 56 0 0.0 0.0 0.00 0.02 0.02 84 1010.2
20260510001511 56 94 0.0 1.0 0.00 0.02 0.02 84 1010.2
20260510000510 57 95 0.0 2.0 0.00 0.02 0.02 82 1010.2
20260510000011 58 95 0.0 1.0 0.00 0.02 0.02 82 1010.3
20260509235510 58 95 0.0 1.0 0.00 0.02 0.02 81 1010.2
20260509235011 58 82 0.0 3.0 0.00 0.02 0.02 81 1010.3
20260509234511 58 64 1.0 3.0 0.00 0.02 0.02 80 1010.2
20260509234012 59 53 1.0 2.0 0.00 0.02 0.02 80 1010.1
20260509233510 59 62 1.0 3.0 0.00 0.02 0.02 79 1010.1
20260509232010 59 78 2.0 5.0 0.00 0.02 0.02 79 1009.8
20260509231511 59 80 3.0 5.0 0.00 0.02 0.02 79 1009.7
20260509230511 59 80 2.0 4.0 0.00 0.02 0.02 80 1009.8
20260509230010 59 68 2.0 4.0 0.00 0.02 0.02 80 1009.9
20260509225512 59 47 2.0 6.0 0.00 0.02 0.02 80 1009.9
20260509225011 59 46 2.0 6.0 0.00 0.02 0.02 80 1010.0
20260509224510 59 45 2.0 5.0 0.00 0.02 0.02 79 1010.1
20260509224011 59 27 2.0 4.0 0.00 0.02 0.02 80 1010.1
20260509223511 59 27 2.0 4.0 0.00 0.02 0.02 81 1010.1
20260509223011 59 50 2.0 4.0 0.00 0.02 0.02 80 1010.2
20260509222511 59 68 2.0 5.0 0.00 0.02 0.02 80 1010.1
20260509222011 59 50 2.0 6.0 0.00 0.02 0.02 80 1010.0
20260509221511 59 33 2.0 6.0 0.00 0.02 0.02 79 1010.0
20260509221011 59 45 2.0 6.0 0.00 0.02 0.02 79 1010.2
20260509220011 59 19 4.0 8.0 0.00 0.02 0.02 78 1010.4
20260509215511 60 25 4.0 8.0 0.00 0.02 0.02 77 1010.5
20260509214513 60 18 3.0 8.0 0.00 0.02 0.02 77 1010.4
20260509214011 60 8 5.0 10.0 0.00 0.02 0.02 75 1010.2
20260509213511 61 359 6.0 10.0 0.00 0.02 0.02 73 1010.5
20260509212510 61 346 4.0 10.0 0.00 0.02 0.02 70 1010.7
20260509212011 61 353 3.0 6.0 0.00 0.02 0.02 69 1010.5
20260509211510 62 351 4.0 7.0 0.00 0.02 0.02 69 1010.4
20260509211012 62 354 3.0 7.0 0.00 0.02 0.02 70 1010.4
20260509210511 62 21 2.0 5.0 0.00 0.02 0.02 70 1010.3
20260509210011 62 28 2.0 6.0 0.00 0.02 0.02 70 1010.3
20260509205511 62 14 3.0 8.0 0.00 0.02 0.02 70 1010.4
20260509205010 62 352 3.0 8.0 0.00 0.02 0.02 71 1010.3
20260509204010 61 353 3.0 7.0 0.00 0.02 0.02 71 1010.1
20260509203511 62 8 4.0 7.0 0.00 0.02 0.02 71 1010.1
20260509203010 62 1 3.0 7.0 0.00 0.02 0.02 72 1010.0
20260509202511 62 352 3.0 7.0 0.00 0.02 0.02 71 1010.0
20260509201011 61 339 5.0 12.0 0.00 0.02 0.02 71 1010.0
20260509200511 61 342 5.0 12.0 0.00 0.02 0.02 72 1010.1
20260509200010 61 347 5.0 10.0 0.00 0.02 0.02 74 1010.1
20260509195511 62 351 6.0 10.0 0.00 0.02 0.02 73 1010.0
20260509195011 62 342 5.0 10.0 0.00 0.02 0.02 73 1010.0
20260509194511 62 334 4.0 10.0 0.00 0.02 0.02 74 1010.1
20260509194010 62 335 4.0 10.0 0.00 0.02 0.02 74 1010.0
20260509193510 62 345 4.0 11.0 0.00 0.02 0.02 74 1010.1
20260509193011 61 354 4.0 11.0 0.00 0.02 0.02 73 1010.1